• In Hungary
  • List of Countries
  • For 7 days
  • Water Temperature
  • Satellite Maps
  • Weather Map
  • News
  • Weather Widgets
  • user-avatar
    Login

    Hourly Weather Calatayud

    Today, 26 September, Wednesday

    Time Temperature Precipitation Wind Pressure Humidity
    00:00 +18°C° 0 mm 2 mps 722 mmHg 60%
    01:00 +18°C° 0 mm 2 mps 722 mmHg 65%
    02:00 +18°C° 0 mm 2 mps 722 mmHg 70%
    03:00 +18°C° 0 mm 3 mps 722 mmHg 75%
    04:00 +18°C° 0 mm 3 mps 722 mmHg 78%
    05:00 +18°C° 0 mm 3 mps 722 mmHg 81%
    06:00 +18°C° 0 mm 4 mps 722 mmHg 84%
    07:00 +19°C° 0 mm 4 mps 723 mmHg 79%
    08:00 +20°C° 0 mm 5 mps 723 mmHg 74%
    09:00 +21°C° 0 mm 6 mps 724 mmHg 69%
    10:00 +23°C° 0 mm 6 mps 724 mmHg 62%
    11:00 +24°C° 0 mm 6 mps 724 mmHg 56%
    12:00 +26°C° 0 mm 7 mps 724 mmHg 49%
    13:00 +27°C° 0 mm 7 mps 724 mmHg 47%
    14:00 +27°C° 0 mm 6 mps 724 mmHg 45%
    15:00 +27°C° 0 mm 6 mps 724 mmHg 43%
    16:00 +26°C° 0 mm 6 mps 724 mmHg 47%
    17:00 +25°C° 0 mm 5 mps 724 mmHg 51%
    18:00 +23°C° 0 mm 5 mps 724 mmHg 54%
    19:00 +22°C° 0 mm 4 mps 724 mmHg 60%
    20:00 +21°C° 0 mm 4 mps 725 mmHg 65%
    21:00 +20°C° 0 mm 3 mps 725 mmHg 71%
    22:00 +19°C° 0 mm 3 mps 725 mmHg 74%
    23:00 +19°C° 0 mm 2 mps 725 mmHg 76%

    Tomorrow, 27 September, Thursday

    Time Temperature Precipitation Wind Pressure Humidity
    00:00 +19°C° 0 mm 2 mps 725 mmHg 79%
    01:00 +18°C° 0 mm 2 mps 725 mmHg 82%
    02:00 +18°C° 0 mm 1 mps 724 mmHg 85%
    03:00 +18°C° 0 mm 1 mps 724 mmHg 88%
    04:00 +16°C° 0 mm 1 mps 724 mmHg 89%
    05:00 +16°C° 0 mm 1 mps 724 mmHg 91%
    06:00 +15°C° 0 mm 1 mps 724 mmHg 92%
    07:00 +18°C° 0 mm 1 mps 724 mmHg 83%
    08:00 +20°C° 0 mm 1 mps 724 mmHg 74%
    09:00 +22°C° 0 mm 1 mps 725 mmHg 65%
    10:00 +23°C° 0 mm 2 mps 724 mmHg 57%
    11:00 +25°C° 0 mm 2 mps 724 mmHg 48%
    12:00 +26°C° 0 mm 2 mps 724 mmHg 40%
    13:00 +27°C° 0 mm 3 mps 723 mmHg 36%
    14:00 +28°C° 0 mm 3 mps 723 mmHg 33%
    15:00 +28°C° 0 mm 3 mps 722 mmHg 30%
    16:00 +27°C° 0 mm 3 mps 722 mmHg 34%
    17:00 +25°C° 0 mm 3 mps 722 mmHg 37%
    18:00 +24°C° 0 mm 3 mps 721 mmHg 40%
    19:00 +23°C° 0 mm 2 mps 721 mmHg 44%
    20:00 +22°C° 0 mm 1 mps 721 mmHg 48%
    21:00 +20°C° 0 mm 1 mps 722 mmHg 52%
    22:00 +18°C° 0 mm 0 mps 721 mmHg 55%
    23:00 +17°C° 0 mm 0 mps 721 mmHg 57%

    Day after tomorrow, 28 September, Friday

    Time Temperature Precipitation Wind Pressure Humidity
    00:00 +17°C° 0 mm 0 mps 720 mmHg 59%
    01:00 +16°C° 0 mm 0 mps 720 mmHg 61%
    02:00 +16°C° 0 mm 0 mps 719 mmHg 62%
    03:00 +15°C° 0 mm 0 mps 719 mmHg 64%
    04:00 +15°C° 0 mm 0 mps 719 mmHg 65%
    05:00 +14°C° 0 mm 0 mps 719 mmHg 65%
    06:00 +14°C° 0 mm 0 mps 718 mmHg 66%
    07:00 +19°C° 0 mm 1 mps 719 mmHg 56%
    08:00 +21°C° 0 mm 1 mps 719 mmHg 47%
    09:00 +24°C° 0 mm 1 mps 719 mmHg 37%
    10:00 +25°C° 0 mm 1 mps 719 mmHg 34%
    11:00 +27°C° 0 mm 2 mps 719 mmHg 32%
    12:00 +28°C° 0 mm 2 mps 718 mmHg 29%
    13:00 +28°C° 0 mm 2 mps 718 mmHg 28%
    14:00 +29°C° 0 mm 2 mps 717 mmHg 27%
    15:00 +30°C° 0 mm 2 mps 717 mmHg 25%
    16:00 +28°C° 0 mm 2 mps 716 mmHg 29%
    17:00 +27°C° 0 mm 2 mps 716 mmHg 33%
    18:00 +25°C° 0 mm 2 mps 716 mmHg 37%
    19:00 +24°C° 0 mm 2 mps 716 mmHg 42%
    20:00 +23°C° 0 mm 2 mps 716 mmHg 47%
    21:00 +21°C° 0 mm 2 mps 717 mmHg 53%
    22:00 +21°C° 0 mm 2 mps 716 mmHg 57%
    23:00 +21°C° 0 mm 1 mps 716 mmHg 60%

    29 September, Saturday

    Time Temperature Precipitation Wind Pressure Humidity
    00:00 +20°C° 0 mm 1 mps 716 mmHg 64%
    01:00 +20°C° 0 mm 1 mps 716 mmHg 65%
    02:00 +19°C° 0 mm 1 mps 715 mmHg 67%
    03:00 +19°C° 0 mm 1 mps 715 mmHg 68%
    04:00 +18°C° 0 mm 1 mps 715 mmHg 69%
    05:00 +18°C° 0 mm 1 mps 715 mmHg 71%
    06:00 +16°C° 0 mm 1 mps 715 mmHg 72%
    07:00 +19°C° 0 mm 1 mps 715 mmHg 64%
    08:00 +22°C° 0 mm 1 mps 716 mmHg 55%
    09:00 +24°C° 0 mm 1 mps 716 mmHg 46%
    10:00 +25°C° 0 mm 1 mps 716 mmHg 40%
    11:00 +27°C° 0 mm 2 mps 716 mmHg 34%
    12:00 +29°C° 0 mm 2 mps 716 mmHg 27%
    13:00 +29°C° 0 mm 2 mps 715 mmHg 25%
    14:00 +30°C° 0 mm 2 mps 715 mmHg 23%
    15:00 +30°C° 0 mm 2 mps 715 mmHg 21%
    16:00 +29°C° 0 mm 3 mps 715 mmHg 24%
    17:00 +27°C° 0 mm 3 mps 715 mmHg 28%
    18:00 +26°C° 0 mm 3 mps 715 mmHg 32%
    19:00 +24°C° 0 mm 2 mps 715 mmHg 34%
    20:00 +23°C° 0 mm 2 mps 715 mmHg 37%
    21:00 +21°C° 0 mm 2 mps 716 mmHg 40%
    22:00 +21°C° 0 mm 2 mps 715 mmHg 39%
    23:00 +20°C° 0 mm 2 mps 715 mmHg 39%

    30 September, Sunday

    Time Temperature Precipitation Wind Pressure Humidity
    00:00 +20°C° 0 mm 2 mps 715 mmHg 38%
    01:00 +19°C° 0 mm 2 mps 715 mmHg 39%
    02:00 +18°C° 0 mm 2 mps 715 mmHg 40%
    03:00 +18°C° 0 mm 2 mps 715 mmHg 40%
    04:00 +18°C° 0 mm 1 mps 715 mmHg 41%
    05:00 +18°C° 0 mm 1 mps 715 mmHg 42%
    06:00 +16°C° 0 mm 1 mps 715 mmHg 43%
    07:00 +20°C° 0 mm 1 mps 715 mmHg 38%
    08:00 +22°C° 0 mm 1 mps 715 mmHg 32%
    09:00 +25°C° 0 mm 1 mps 716 mmHg 27%
    10:00 +26°C° 0 mm 1 mps 716 mmHg 24%
    11:00 +28°C° 0 mm 1 mps 716 mmHg 21%
    12:00 +29°C° 0 mm 1 mps 716 mmHg 18%
    13:00 +30°C° 0 mm 2 mps 715 mmHg 18%
    14:00 +30°C° 0 mm 2 mps 715 mmHg 17%
    15:00 +30°C° 0 mm 2 mps 715 mmHg 16%
    16:00 +29°C° 0 mm 2 mps 715 mmHg 19%
    17:00 +27°C° 0 mm 2 mps 715 mmHg 22%
    18:00 +26°C° 0 mm 2 mps 715 mmHg 25%
    19:00 +25°C° 0 mm 2 mps 715 mmHg 29%
    20:00 +24°C° 0 mm 2 mps 715 mmHg 33%
    21:00 +23°C° 0 mm 2 mps 715 mmHg 37%
    22:00 +21°C° 0 mm 2 mps 715 mmHg 46%
    23:00 +20°C° 0 mm 3 mps 715 mmHg 55%

    1 October, Monday

    Time Temperature Precipitation Wind Pressure Humidity
    00:00 +19°C° 0 mm 3 mps 715 mmHg 63%
    01:00 +19°C° 0 mm 3 mps 715 mmHg 68%
    02:00 +18°C° 0 mm 4 mps 714 mmHg 72%
    03:00 +18°C° 0 mm 4 mps 714 mmHg 76%
    04:00 +17°C° 0 mm 4 mps 714 mmHg 78%
    05:00 +17°C° 0 mm 4 mps 714 mmHg 79%
    06:00 +15°C° 0 mm 4 mps 714 mmHg 80%
    07:00 +16°C° 0.1 mm 5 mps 715 mmHg 75%
    08:00 +16°C° 0.1 mm 5 mps 715 mmHg 70%
    09:00 +17°C° 0.1 mm 6 mps 715 mmHg 65%
    10:00 +17°C° 0.5 mm 6 mps 715 mmHg 64%
    11:00 +17°C° 0.5 mm 6 mps 715 mmHg 62%
    12:00 +19°C° 0.5 mm 6 mps 715 mmHg 60%
    13:00 +17°C° 0.6 mm 6 mps 715 mmHg 61%
    14:00 +17°C° 0.6 mm 7 mps 715 mmHg 62%
    15:00 +16°C° 0.6 mm 7 mps 714 mmHg 62%
    16:00 +16°C° 0.1 mm 8 mps 714 mmHg 62%
    17:00 +15°C° 0.1 mm 8 mps 715 mmHg 62%
    18:00 +13°C° 0.1 mm 9 mps 715 mmHg 61%
    19:00 +12°C° 0 mm 8 mps 715 mmHg 65%
    20:00 +11°C° 0 mm 8 mps 715 mmHg 69%
    21:00 +10°C° 0 mm 8 mps 716 mmHg 74%
    22:00 +10°C° 0 mm 7 mps 716 mmHg 75%
    23:00 +9°C° 0 mm 7 mps 716 mmHg 77%
    Show more